Change the Weather History Date:

Sunday, May 12, 2013

  Actual Average Record
Temperature  
Mean Temperature 46 °F -  
Max Temperature 57 °F 74 °F 86 °F (2011)
Min Temperature 36 °F 42 °F 36 °F (2013)
Degree Days  
Heating Degree Days 19    
Moisture  
Dew Point 27 °F    
Average Humidity 47    
Maximum Humidity 76    
Minimum Humidity 28    
Precipitation  
Precipitation 0.00 in - - ()
Sea Level Pressure  
Sea Level Pressure 30.16 in    
Wind  
Wind Speed 12 mph (WNW)    
Max Wind Speed 22 mph    
Max Gust Speed 29 mph    
Visibility 10 miles    
Events      
Averages and records for this station are not official NWS values.
T = Trace of Precipitation, MM = Missing Value Source: NWS Daily Summary

Daily Weather History Graph

Daily Weather History Graph

Search for Another Location

Airport or City:

Trip Planner

Search our weather history database for the weather conditions in past years. The results will help you decide how hot, cold, wet, or windy it might be!

Date:

Astronomy

May. 12, 2013 Rise Set
Actual Time 5:41 AM CDT 8:02 PM CDT
Civil Twilight 5:11 AM CDT 8:33 PM CDT
Nautical Twilight 4:33 AM CDT 9:11 PM CDT
Astronomical Twilight 3:51 AM CDT 9:53 PM CDT
Moon 7:36 AM CDT (5/12) 10:29 PM CDT (5/12)
Length of Visible Light 15h 22m
Length of Day
14h 20m
Waxing Crescent, 7% of the Moon is Illuminated
May 12
Waxing Crescent
May 17
First Quarter
May 24
Full
May 31
Last Quarter
Jun 8
New

Hourly Weather History & Observations

Time (CDT) Temp. Windchill Dew Point Humidity Pressure Visibility Wind Dir Wind Speed Gust Speed Precip Events Conditions
12:56 AM 41.9 °F 35.9 °F 30.0 °F 63% 30.12 in 10.0 mi WNW 10.4 mph - N/A   Clear
1:56 AM 43.9 °F 37.5 °F 27.1 °F 52% 30.12 in 10.0 mi NW 12.7 mph - N/A   Clear
2:56 AM 41.9 °F 36.3 °F 27.1 °F 56% 30.12 in 10.0 mi NW 9.2 mph - N/A   Clear
3:56 AM 41.0 °F 35.2 °F 27.1 °F 58% 30.13 in 10.0 mi NW 9.2 mph - N/A   Clear
4:56 AM 37.9 °F 32.1 °F 27.1 °F 65% 30.14 in 10.0 mi WNW 8.1 mph - N/A   Clear
5:56 AM 36.9 °F 30.1 °F 30.0 °F 76% 30.15 in 10.0 mi West 9.2 mph - N/A   Clear
6:56 AM 39.9 °F 33.4 °F 30.0 °F 68% 30.17 in 10.0 mi WNW 10.4 mph - N/A   Clear
7:56 AM 43.9 °F 37.5 °F 28.0 °F 54% 30.17 in 10.0 mi NNW 12.7 mph - N/A   Clear
8:56 AM 45.9 °F 39.1 °F 29.1 °F 52% 30.19 in 10.0 mi NNW 16.1 mph 20.7 mph N/A   Clear
9:56 AM 47.8 °F - 27.1 °F 45% 30.19 in 10.0 mi NW 11.5 mph - N/A   Clear
10:56 AM 50.9 °F - 30.0 °F 45% 30.20 in 10.0 mi NNW 12.7 mph - N/A   Clear
11:56 AM 50.9 °F - 27.1 °F 40% 30.20 in 10.0 mi NW 15.0 mph 20.7 mph N/A   Partly Cloudy
12:56 PM 52.9 °F - 25.2 °F 34% 30.19 in 10.0 mi WNW 17.3 mph 21.9 mph N/A   Clear
1:56 PM 54.9 °F - 25.2 °F 32% 30.18 in 10.0 mi NW 15.0 mph 25.3 mph N/A   Clear
2:56 PM 55.9 °F - 24.1 °F 29% 30.17 in 10.0 mi WNW 21.9 mph 28.8 mph N/A   Clear
3:56 PM 55.9 °F - 24.1 °F 29% 30.15 in 10.0 mi NW 19.6 mph 24.2 mph N/A   Clear
4:56 PM 56.8 °F - 24.1 °F 28% 30.14 in 10.0 mi WNW 12.7 mph - N/A   Clear
5:56 PM 55.9 °F - 25.2 °F 31% 30.14 in 10.0 mi NW 17.3 mph 21.9 mph N/A   Clear
6:56 PM 54.9 °F - 24.1 °F 30% 30.14 in 10.0 mi WNW 13.8 mph - N/A   Clear
7:56 PM 52.9 °F - 25.2 °F 34% 30.13 in 10.0 mi WNW 9.2 mph - N/A   Clear
8:56 PM 50.0 °F - 28.0 °F 43% 30.16 in 10.0 mi West 6.9 mph - N/A   Clear
9:56 PM 47.8 °F - 29.1 °F 48% 30.17 in 10.0 mi West 5.8 mph - N/A   Clear
10:56 PM 46.9 °F - 30.0 °F 52% 30.17 in 10.0 mi West 6.9 mph - N/A   Clear
11:56 PM 43.9 °F 39.3 °F 31.1 °F 61% 30.16 in 10.0 mi West 8.1 mph - N/A   Clear